Regional Weather Roundup
Issued by NWS

Home | Current Version | Previous Version | Graphics & Text | Print | Product List | Glossary On
Versions: 1 2 3 4 5 6 7 8 9 10 11 12 13 14 15 16 17 18 19 20 21 22 23 24 25 26 27 28 29 30 31 32 33 34 35 36 37 38 39 40 41 42 43 44 45 46 47 48 49 50
091
ASUS45 KTFX 170310
RWRMT
MONTANA REGIONAL WEATHER ROUNDUP
NATIONAL WEATHER SERVICE GREAT FALLS MT
900 PM MDT WED AUG 16 2017

NOTE: "FAIR" INDICATES FEW OR NO CLOUDS BELOW 12000 FEET WITH NO
SIGNIFICANT WEATHER AND/OR OBSTRUCTIONS TO VISIBILITY.

MTZ001>007-043-170400-
WEST OF THE DIVIDE

CITY           SKY/WX    TMP DP  RH WIND       PRES   REMARKS
KALISPELL      MOCLDY    75  39  27 W8        29.91R
MISSOULA       CLEAR     72  33  24 NW7       29.95R
BUTTE          CLEAR     70  31  23 N7        30.07R
MULLAN PASS    CLEAR     60  34  37 VRB5      30.13S
ANACONDA         N/A     64  32  29 N3        30.04R
DEER LODGE       N/A     64  32  29 NW7       30.04R
EUREKA           N/A     75  37  25 MISG      29.90R
HAMILTON         N/A     72  37  28 E7        29.98R
LIBBY            N/A     75  37  25 CALM      29.91R
PLAINS           N/A     76  40  27 SW2       29.94R
RONAN            N/A     74  44  34 CALM      29.99R
$$

MTZ008-052>055-170400-
SOUTHWEST MONTANA

CITY           SKY/WX    TMP DP  RH WIND       PRES   REMARKS
BOZEMAN        CLEAR     70  42  36 N8        29.97R
DILLON         CLEAR     71  35  26 NW3       30.01R
W YELLOWSTONE  CLOUDY    63  36  36 SW5       30.15S
ENNIS          CLOUDY    70  41  35 S10       30.08R
THREE FORKS      N/A     72  36  26 CALM      29.97R
$$

MTZ009-010-012-014-046-048-049-054-170400-
EAST SLOPES AND CENTRAL MONTANA

CITY           SKY/WX    TMP DP  RH WIND       PRES   REMARKS
CUT BANK       PTCLDY    68  35  29 W13       29.92R
GREAT FALLS    CLEAR     74  26  16 CALM      29.91S
MALMSTROM AFB  CLEAR     74  27  17 CALM      29.91R
HELENA         MOCLDY    74  31  20 W10       29.95R HAZE
AUGUSTA          N/A     70  25  18 NW13      29.96R
BOWMANS CRNR     N/A     68  27  21 NW13      29.95R
CHOTEAU          N/A     68  36  30 N5        29.96R
FAIRFIELD        N/A     69  29  22 N12       29.93R
POWER            N/A     61  25  25 NE3       29.92R
RAYNESFORD       N/A     67  28  23 E3        29.95R
ULM              N/A     66  28  24 S7        29.91S
$$

MTZ011-013-016-021-045-047-050-051-170400-
NORTH CENTRAL MONTANA

CITY           SKY/WX    TMP DP  RH WIND       PRES   REMARKS
HAVRE          PTCLDY    76  33  21 N5        29.84R
LEWISTOWN      PTCLDY    70  30  22 CALM      29.96R
N BAR RANCH      N/A     70  27  19 NW6       29.99R
CHINOOK          N/A     73  39  29 CALM      29.83R
DENTON           N/A     71  26  18 NW5       29.89R
GEYSER           N/A     70  25  18 CALM      29.95R
GRASS RANGE      N/A     69  27  21 W5        29.91R
JUDITH GAP       N/A     65  28  24 N7        29.98R
$$

MTZ017>020-022>027-061-062-170400-
NORTHEAST MONTANA

CITY           SKY/WX    TMP DP  RH WIND       PRES   REMARKS
GLASGOW        MOCLDY    81  41  24 E12       29.81R
JORDAN           N/A     70  29  21 NW7       29.83R
SIDNEY         CLEAR     69  53  56 SE5       29.85R
WOLF POINT     CLEAR     74  46  36 E7        29.82R
MALTA          CLEAR     70  37  30 CALM      29.82R
PLENTYWOOD       N/A     73  54  49 CALM      29.86R
POPLAR           N/A     73  52  46 E9        29.83R
SCOBEY           N/A     69  48  46 E7        29.85S
$$

MTZ028>42-056>058-170400-
SOUTHCENTRAL AND SOUTHEAST MONTANA

CITY           SKY/WX    TMP DP  RH WIND       PRES   REMARKS
BAKER          CLOUDY    65  49  56 SE9       29.92R
BILLINGS       CLOUDY    79  41  25 SW10      29.91R
LIVINGSTON     CLOUDY    74  41  30 S12       29.96R
MILES CITY     CLEAR     76  38  25 S7        29.83R
BIG TIMBER     PTCLDY    72  43  35 S9        29.99R
EKALAKA          N/A     70  43  37 SE7       29.94R
FORSYTH          N/A     75  36  23 CALM      29.83R
HARLOWTON        N/A     71  26  18 MISG      29.96R
LAUREL           N/A     73  40  30 CALM      29.92R
$$

REGIONAL REPORTS...DAKOTAS

CITY           SKY/WX    TMP DP  RH WIND       PRES   REMARKS
WILLISTON      CLOUDY    75  55  49 SE10      29.86S
MINOT          CLEAR     65  53  65 CALM      29.89R
DICKINSON      CLEAR     63  54  72 SE7       29.91S
BEACH            N/A     66  46  48 SE13      29.93S
CROSBY           N/A     68  52  56 S8        29.87S
TIOGA            N/A     66  54  63 S6        29.91R
WATFORD CITY     N/A     70  55  60 SE10      29.87S
BISMARCK       CLOUDY    67  56  67 N6        29.90R
GRAND FORKS    CLOUDY    64  64 100 N6        29.82S
FARGO          CLOUDY    65  65 100 N9        29.79S
BUFFALO SD       N/A     68  50  52 SE10      29.89R
RAPID CITY     CLEAR     64  51  62 SE3       29.99R
$$

REGIONAL REPORTS...WYOMING/IDAHO/WASHINGTON

CITY           SKY/WX    TMP DP  RH WIND       PRES   REMARKS
GILLETTE       CLEAR     69  37  30 S12       30.00R
SHERIDAN       CLOUDY    67  48  50 SW5       29.97R
BUFFALO WY     CLEAR     66  39  37 W7        30.05R
CODY           CLEAR     67  44  43 S5        30.05R
YELLOWSTONE LA   N/A     47  40  76 NW3       30.26R
IDAHO FALLS    CLEAR     74  39  28 S10       30.02R
SALMON         CLEAR     70  46  42 SE6       29.96R
BOISE          CLEAR     79  36  21 NW6       29.94S
SPOKANE        PTCLDY    78  41  26 SW8       29.93S
$$

REGIONAL REPORTS...ALBERTA

CITY           SKY/WX    TMP DP  RH WIND       PRES   REMARKS
EDMONTON       MOCLDY    61  54  77 W5        29.86R SMOKE
CALGARY        MOCLDY    70  43  37 E6        29.88R
LETHBRIDGE     CLOUDY    70  41  35 W9        29.84R
MEDICINE HAT   MOCLDY    70  46  43 VRB2      29.82S
$$

REGIONAL REPORTS...SASKATCHEWAN

CITY           SKY/WX    TMP DP  RH WIND       PRES   REMARKS
SWIFT CURRENT  CLEAR     64  43  45 E12       29.86R
REGINA         MOCLDY    70  43  37 NE8       29.87R
SASKATOON      PTCLDY    59  46  63 E8        29.86S
$$




USA.gov is the U.S. government's official web portal to all federal, state and local government web resources and services.